Weather History for KHSB - March, 2014

Change the Weather History Date:

Sunday, March 16, 2014

  Actual Average (KMWA) Record (KMWA)
Temperature  
Mean Temperature 41 °F -  
Max Temperature 50 °F 56 °F 78 °F (1977)
Min Temperature 30 °F 31 °F 17 °F (1988)
Degree Days  
Heating Degree Days 24    
Moisture  
Dew Point 31 °F    
Average Humidity 76    
Maximum Humidity 99    
Minimum Humidity 46    
Precipitation  
Precipitation 0.42 in - - ()
Sea Level Pressure  
Sea Level Pressure 29.95 in    
Wind  
Wind Speed 12 mph (NNE)    
Max Wind Speed 24 mph    
Max Gust Speed 31 mph    
Visibility 8 miles    
Events Rain , Snow    
Averages and records for this station are not official NWS values.
T = Trace of Precipitation, MM = Missing Value Source: NWS Daily Summary

Daily Weather History Graph

Daily Weather History Graph

Search for Another Location

Airport or City:

Trip Planner

Search our weather history database for the weather conditions in past years. The results will help you decide how hot, cold, wet, or windy it might be!

Date:

Astronomy

Mar. 16, 2014 Rise Set
Actual Time 7:03 AM CDT 7:02 PM CDT
Civil Twilight 6:37 AM CDT 7:28 PM CDT
Nautical Twilight 6:07 AM CDT 7:59 PM CDT
Astronomical Twilight 5:36 AM CDT 8:29 PM CDT
Moon 7:18 PM CDT (3/16) 6:47 AM CDT (3/16)
Length of Visible Light 12h 50m
Length of Day
11h 58m
Full, 100% of the Moon is Illuminated
Mar 16
Full
Mar 16
Full
Mar 23
Last Quarter
Mar 30
New
Apr 7
First Quarter

Hourly Weather History & Observations

Time (CDT) Temp. Windchill Dew Point Humidity Pressure Visibility Wind Dir Wind Speed Gust Speed Precip Events Conditions
12:15 AM 51.4 °F - 31.3 °F 46% 29.94 in 10.0 mi NE 4.6 mph - N/A   Clear
12:35 AM 48.9 °F - 32.0 °F 52% 29.95 in 10.0 mi NNE 5.8 mph - N/A   Scattered Clouds
12:55 AM 49.6 °F - 33.8 °F 54% 29.95 in 10.0 mi NNE 5.8 mph - N/A   Mostly Cloudy
1:15 AM 50.4 °F - 33.8 °F 53% 29.95 in 10.0 mi NNE 6.9 mph - N/A   Mostly Cloudy
1:35 AM 50.9 °F - 34.0 °F 52% 29.94 in 10.0 mi NE 9.2 mph - N/A   Overcast
1:55 AM 50.7 °F - 34.3 °F 53% 29.95 in 10.0 mi NE 6.9 mph - N/A   Overcast
2:15 AM 49.6 °F - 36.1 °F 60% 29.95 in 10.0 mi ENE 3.5 mph - N/A Rain Light Rain
2:35 AM 49.1 °F - 36.9 °F 63% 29.94 in 10.0 mi ENE 4.6 mph - N/A Rain Light Rain
2:55 AM 49.1 °F - 36.9 °F 63% 29.94 in 10.0 mi NE 6.9 mph - N/A Rain Light Rain
3:15 AM 49.5 °F - 36.1 °F 60% 29.93 in 10.0 mi NE 9.2 mph - N/A Rain Light Rain
3:35 AM 48.4 °F - 36.5 °F 64% 29.92 in 10.0 mi NE 10.4 mph - N/A Rain Light Rain
3:55 AM 47.7 °F - 36.5 °F 65% 29.91 in 10.0 mi NE 12.7 mph - N/A   Light Drizzle
4:15 AM 47.5 °F - 35.4 °F 63% 29.89 in 10.0 mi NE 13.8 mph - N/A   Light Drizzle
4:35 AM 46.8 °F - 34.2 °F 62% 29.90 in 10.0 mi NE 15.0 mph 20.7 mph N/A   Overcast
4:55 AM 46.6 °F - 32.9 °F 59% 29.89 in 10.0 mi NE 12.7 mph 19.6 mph N/A   Overcast
5:15 AM 46.2 °F 39.8 °F 32.0 °F 58% 29.89 in 10.0 mi NE 15.0 mph 23.0 mph N/A   Overcast
5:35 AM 45.7 °F 38.8 °F 32.0 °F 59% 29.88 in 10.0 mi NE 16.1 mph 24.2 mph N/A   Overcast
5:55 AM 45.1 °F 39.1 °F 32.0 °F 60% 29.89 in 10.0 mi NE 12.7 mph 21.9 mph N/A   Mostly Cloudy
6:15 AM 44.6 °F 38.1 °F 32.0 °F 61% 29.88 in 10.0 mi NE 13.8 mph 21.9 mph N/A   Overcast
6:35 AM 43.9 °F 36.5 °F 32.7 °F 65% 29.89 in 10.0 mi NE 16.1 mph 23.0 mph N/A   Light Drizzle
6:55 AM 42.6 °F 36.3 °F 33.3 °F 69% 29.89 in 10.0 mi NNE 11.5 mph - N/A   Light Drizzle
7:15 AM 41.9 °F 34.3 °F 33.4 °F 72% 29.89 in 10.0 mi NE 15.0 mph 21.9 mph N/A   Light Drizzle
7:35 AM 41.2 °F 33.7 °F 32.9 °F 72% 29.91 in 10.0 mi NE 13.8 mph 21.9 mph N/A   Light Drizzle
7:55 AM 40.3 °F 32.6 °F 32.2 °F 73% 29.91 in 10.0 mi NE 13.8 mph 21.9 mph N/A   Light Drizzle
8:15 AM 39.6 °F 31.7 °F 32.0 °F 74% 29.92 in 10.0 mi NE 13.8 mph 23.0 mph N/A   Drizzle
8:35 AM 38.7 °F 29.1 °F 32.0 °F 77% 29.93 in 10.0 mi NE 18.4 mph 24.2 mph N/A Rain Light Rain
8:55 AM 38.3 °F 28.4 °F 31.5 °F 76% 29.94 in 10.0 mi NE 19.6 mph 26.5 mph 0.01 in Rain Light Rain
9:15 AM 37.6 °F 28.1 °F 31.5 °F 79% 29.95 in 10.0 mi NE 17.3 mph 28.8 mph N/A Rain Rain
9:35 AM 36.7 °F 26.0 °F 31.3 °F 81% 29.96 in 10.0 mi NE 20.7 mph 25.3 mph 0.01 in Rain Light Rain
9:55 AM 36.1 °F 26.5 °F 32.0 °F 85% 29.96 in 7.0 mi NE 16.1 mph 26.5 mph 0.01 in Rain Light Rain
10:15 AM 35.8 °F 24.8 °F 32.0 °F 86% 29.96 in 7.0 mi NE 20.7 mph 26.5 mph 0.01 in Rain Light Rain
10:35 AM 35.6 °F 25.2 °F 32.0 °F 87% 29.96 in 7.0 mi NNE 18.4 mph 27.6 mph 0.03 in Rain Light Rain
10:55 AM 35.1 °F 24.8 °F 32.0 °F 89% 29.97 in 5.0 mi NNE 17.3 mph 26.5 mph 0.05 in Rain Light Rain
11:15 AM 34.7 °F 23.7 °F 32.0 °F 90% 29.97 in 5.0 mi NNE 19.6 mph 26.5 mph 0.02 in Rain Light Rain
11:35 AM 34.2 °F 24.0 °F 32.0 °F 92% 29.97 in 4.0 mi NNE 16.1 mph 27.6 mph 0.04 in Rain Light Rain
11:55 AM 34.0 °F 22.1 °F 32.0 °F 92% 29.96 in 5.0 mi NE 21.9 mph 31.1 mph 0.06 in Rain Light Rain
12:15 PM 33.4 °F 23.1 °F 32.2 °F 95% 29.97 in 4.0 mi NNE 16.1 mph 24.2 mph 0.01 in Rain Light Rain
12:35 PM 33.4 °F 22.0 °F 32.4 °F 96% 29.96 in 4.0 mi NE 19.6 mph 25.3 mph 0.04 in Rain Rain
12:55 PM 33.4 °F 20.8 °F 32.0 °F 94% 29.96 in 5.0 mi NE 24.2 mph 29.9 mph 0.07 in Rain Light Rain
1:15 PM 33.3 °F 22.8 °F 32.4 °F 96% 29.96 in 3.0 mi NE 16.1 mph 20.7 mph 0.03 in Rain Light Rain
1:35 PM 33.1 °F 21.9 °F 32.0 °F 96% 29.95 in 5.0 mi NNE 18.4 mph 28.8 mph 0.06 in Rain Light Rain
1:55 PM 32.9 °F 22.0 °F 32.0 °F 96% 29.94 in 5.0 mi NNE 17.3 mph - 0.07 in Rain Light Rain
2:15 PM 32.9 °F 22.4 °F 31.8 °F 96% 29.94 in 4.0 mi NNE 16.1 mph 26.5 mph 0.02 in Snow Snow
2:35 PM 32.5 °F 20.5 °F 31.1 °F 94% 29.92 in 3.0 mi NNE 20.7 mph 26.5 mph 0.05 in   Overcast
2:55 PM 32.5 °F 21.9 °F 30.7 °F 93% 29.94 in 5.0 mi NNE 16.1 mph - 0.06 in Snow Light Snow
3:15 PM 32.5 °F 22.3 °F 29.8 °F 90% 29.95 in 4.0 mi NNE 15.0 mph 24.2 mph N/A Snow Light Snow
3:35 PM 32.7 °F 22.1 °F 29.5 °F 88% 29.95 in 3.0 mi NNE 16.1 mph 25.3 mph N/A Snow Light Snow
3:55 PM 32.4 °F 21.7 °F 30.2 °F 92% 29.95 in 1.8 mi NNE 16.1 mph 20.7 mph N/A Snow Light Snow
4:15 PM 32.5 °F 23.2 °F 30.7 °F 93% 29.95 in 2.5 mi North 12.7 mph 20.7 mph 0.01 in Snow Light Snow
4:35 PM 32.7 °F 22.1 °F 31.1 °F 94% 29.95 in 5.0 mi NNE 16.1 mph 21.9 mph 0.02 in Snow Light Snow
4:55 PM 32.5 °F 22.7 °F 31.1 °F 94% 29.95 in 3.0 mi NNE 13.8 mph 20.7 mph 0.02 in Snow Light Snow
5:15 PM 32.4 °F 24.0 °F 31.8 °F 98% 29.94 in 2.0 mi NNE 10.4 mph 19.6 mph 0.01 in Snow Light Snow
5:35 PM 32.4 °F 24.0 °F 32.0 °F 99% 29.95 in 2.0 mi NNE 10.4 mph 18.4 mph 0.01 in Snow Light Snow
5:55 PM 32.4 °F 24.6 °F 32.0 °F 99% 29.95 in 2.5 mi NNE 9.2 mph - 0.02 in Snow Light Snow
6:15 PM 32.9 °F 23.2 °F 32.0 °F 96% 29.96 in 5.0 mi NNE 13.8 mph 19.6 mph N/A Snow Light Snow
6:35 PM 34.7 °F 25.9 °F 27.7 °F 76% 29.95 in 10.0 mi NNE 12.7 mph 19.6 mph 0.01 in   Overcast
6:55 PM 34.7 °F 25.5 °F 26.8 °F 73% 29.96 in 10.0 mi North 13.8 mph - 0.02 in   Overcast
7:15 PM 34.7 °F 25.9 °F 26.6 °F 72% 29.95 in 10.0 mi NNE 12.7 mph 20.7 mph 0.01 in   Overcast
7:35 PM 34.3 °F 25.9 °F 26.2 °F 72% 29.97 in 10.0 mi NNE 11.5 mph - 0.01 in   Overcast
7:55 PM 34.0 °F 26.0 °F 26.2 °F 73% 29.96 in 10.0 mi North 10.4 mph 17.3 mph 0.02 in   Overcast
8:15 PM 33.8 °F 24.8 °F 25.9 °F 73% 29.98 in 10.0 mi NNE 12.7 mph 17.3 mph N/A   Overcast
8:35 PM 33.8 °F 24.8 °F 25.9 °F 73% 29.99 in 10.0 mi NNE 12.7 mph 18.4 mph N/A   Overcast
8:55 PM 33.8 °F 24.3 °F 25.5 °F 72% 30.00 in 10.0 mi NNE 13.8 mph - N/A   Overcast
9:15 PM 33.4 °F 25.4 °F 25.5 °F 73% 29.99 in 10.0 mi North 10.4 mph - N/A   Overcast
9:35 PM 33.3 °F 25.7 °F 25.3 °F 73% 29.99 in 10.0 mi NNE 9.2 mph 17.3 mph 0.01 in   Overcast
9:55 PM 33.1 °F 25.5 °F 25.2 °F 73% 29.99 in 10.0 mi North 9.2 mph - 0.01 in   Overcast
10:15 PM 32.9 °F 23.7 °F 24.6 °F 72% 30.00 in 10.0 mi North 12.7 mph 16.1 mph N/A   Overcast
10:35 PM 32.0 °F 24.8 °F 24.4 °F 74% 30.01 in 10.0 mi North 8.1 mph 16.1 mph N/A   Overcast
10:55 PM 31.6 °F 21.2 °F 23.4 °F 71% 30.01 in 10.0 mi North 15.0 mph 18.4 mph N/A   Overcast
11:15 PM 31.1 °F 20.9 °F 23.0 °F 72% 30.00 in 10.0 mi North 13.8 mph 19.6 mph N/A   Overcast
11:35 PM 31.1 °F 21.4 °F 22.5 °F 70% 30.00 in 10.0 mi NNE 12.7 mph 18.4 mph N/A   Overcast
11:55 PM 30.9 °F 20.7 °F 21.7 °F 69% 30.00 in 10.0 mi NNE 13.8 mph 19.6 mph N/A   Overcast